Regional Weather Roundup
Issued by NWS

Home | Current Version | Previous Version | Text Only | Print | Product List | Glossary On
Versions: 1 2 3 4 5 6 7 8 9 10 11 12 13 14 15 16 17 18 19 20 21 22 23 24 25 26 27 28 29 30 31 32 33 34 35 36 37 38 39 40 41 42 43 44 45 46 47 48 49 50
000
ASUS43 KLOT 260221
RWRIL

ILLINOIS REGIONAL WEATHER ROUNDUP
NATIONAL WEATHER SERVICE CHICAGO/ROMEOVILLE IL
900 PM CDT MON MAY 25 2015

NOTE: "FAIR" INDICATES FEW OR NO CLOUDS BELOW 12,000 FEET WITH NO
SIGNIFICANT WEATHER AND/OR OBSTRUCTIONS TO VISIBILITY.

* THESE STATIONS ARE NOT UNDER NWS QUALITY CONTROL. THEY ALSO MAY NOT
  REPORT WEATHER SUCH AS PRECIPITATION OR FOG.

ILZ001-002-007-009-015-016-024-260300-
NORTHWEST ILLINOIS

CITY           SKY/WX    TMP DP  RH WIND       PRES   REMARKS
MOLINE         CLEAR     72  61  68 S6        29.88S
STERLING*      CLEAR     72  61  68 CALM      29.91R
SAVANNA*       PTCLDY    73  60  63 S8        29.87S
$$

ILZ003-004-008-010-011-017-018-260300-
NORTH CENTRAL ILLINOIS

CITY           SKY/WX    TMP DP  RH WIND       PRES   REMARKS
ROCKFORD       PTCLDY    74  60  61 SW12      29.91R
FREEPORT*      PTCLDY    68  61  78 S8        29.91S
ROCHELLE*      CLEAR     68  63  84 S8        29.91S
DE KALB*       CLEAR     66  60  81 S7        29.92R
PERU*          CLEAR     74  59  60 SW6       29.92R
$$

ILZ005-006-012>014-019>023-260300-
NORTHEAST ILLINOIS

CITY           SKY/WX    TMP DP  RH WIND       PRES   REMARKS
CHICAGO-OHARE  PTCLDY    73  60  63 S6        29.91R
CHICAGO-MIDWAY PTCLDY    77  60  55 S5        29.92R
AURORA         CLEAR     71  59  65 S8        29.92R
LANSING*       MOCLDY    67  56  65 S9        29.94R
JOLIET*        PTCLDY    74  60  61 SW6       29.93R
WAUKEGAN       PTCLDY    70  59  68 SW8       29.90R
DUPAGE AIRPORT CLEAR     67  60  78 S6        29.92R
KANKAKEE*      PTCLDY    74  64  70 S14       29.97R
WHEELING       PTCLDY    70  58  65 S5        29.93R
MORRIS*        CLEAR     73  60  63 SW9       29.92R
ROMEOVILLE*    CLEAR     71  58  63 SW9       29.93R
NORTHERLY ISL    N/A     76  57  51 S5          N/A
$$

LMZ740>746-260300-
SOUTHERN LAKE MICHIGAN

STATION/POSITION SKY/WX   TEMP    WIND        PRES    VSBY  WAVE
                          AIR SEA DIR/SP/G                  HT/PER
                          (F)     (DEG/KT/KT) (MB)    (MI)  (FT/S)
SOUTHERN BUOY              47 38  190/ 10/ 12 1013.1R         1/ 4
HARRISON CRIB              76     190/ 12/ 12   N/A
BURNHAM HARBOR             76     200/  7/  8   N/A
CALUMET HARBOR             75     170/  3/  5   N/A
BURNS HARBOR               77     210/  8/ 10 1013.9F
MICHIGAN CITY              77     150/ 10/ 12   N/A
MICHIGAN CITY 6N           64 52  170/  6/  8   N/A           1/ 3
ST. JOSEPH                 62 55  200/  6/  6   N/A           1/ 4
$$

ILZ025>027-034>036-040-047-049-050-058-095>099-260300-
WEST-CENTRAL ILLINOIS

CITY           SKY/WX    TMP DP  RH WIND       PRES   REMARKS
QUINCY         PTCLDY    73  65  75 SE5       29.90R
GALESBURG*     PTCLDY    70  63  77 S3        29.91R
MACOMB*        PTCLDY    71  65  81 S5        29.93R
JACKSONVILLE*  PTCLDY    78  67  70 SE14      29.94R HX  80
PITTSFIELD*    MOCLDY    76  66  71 SE7       29.93R
$$

ILZ028>032-037-038-041>044-048-051>054-059>061-260300-
CENTRAL ILLINOIS

CITY           SKY/WX    TMP DP  RH WIND       PRES   REMARKS
PONTIAC        CLEAR     74  61  63 S7        29.95R
BLOOMINGTON    CLEAR     74  65  73 S13       29.97R
DECATUR        CLEAR     75  64  68 S13       29.97R
PEORIA         CLEAR     77  62  59 S9        29.92R
LACON*         CLEAR     73  59  61 S7        29.91R
LINCOLN*       CLEAR     76  65  68 S10       29.93R
SPRINGFIELD    CLEAR     77  66  68 S16       29.95R
TAYLORVILLE    CLEAR     72  64  78 S13       29.98R
$$

ILZ033-039-045-046-055>057-062-063-260300-
EAST-CENTRAL ILLINOIS

CITY           SKY/WX    TMP DP  RH WIND       PRES   REMARKS
CHAMPAIGN      PTCLDY    74  63  68 S12       29.98R
DANVILLE*      CLOUDY    72  64  75 S9        29.97R
RANTOUL*       PTCLDY    75  64  68 S9        29.98R
MATTOON        PTCLDY    72  65  78 S8        29.99R
PARIS*         CLOUDY    72  65  80 S10       30.01R
$$

ILZ079-100>102-260300-
SOUTHWEST ILLINOIS

CITY           SKY/WX    TMP DP  RH WIND       PRES   REMARKS
ALTON          PTCLDY    75  72  88 SE9       29.97R
BELLEVILLE     PTCLDY    74  70  88 SE9       29.97R
CAHOKIA*       PTCLDY    76  67  73 SE9       29.96R
SPARTA*        PTCLDY    73  67  83 SE7       30.00R
$$

ILZ064>066-069>071-074>076-080>082-084>086-088>090-092>094-260300-
SOUTH-CENTRAL ILLINOIS

CITY           SKY/WX    TMP DP  RH WIND       PRES   REMARKS
CARBONDALE     CLEAR     72  66  81 SE8       30.02R
CAIRO*         PTCLDY    72  68  88 SE8       30.02S
EFFINGHAM*     PTCLDY    72  63  72 SE9       30.02R
MARION         PTCLDY    72  68  88 SE5       30.03S
MT. VERNON     PTCLDY    72  64  78 SE8       30.04R
CENTRALIA*     CLEAR     72  65  79 S12G17    30.01R
SALEM*         CLEAR     74  67  76 S6        30.02R
METROPOLIS*    PTCLDY    72  69  89 CALM      30.03S
$$

ILZ067-068-072-073-078-083-087-091-260300-
SOUTHEAST ILLINOIS

CITY           SKY/WX    TMP DP  RH WIND       PRES   REMARKS
LAWRENCEVILLE  CLOUDY    71  65  81 S9        30.04R
FLORA*         CLOUDY    72  66  82 S12       30.03R
FAIRFIELD*     MOCLDY    72  67  84 S7        30.03R
HARRISBURG*    PTCLDY    70  68  94 SE5       30.06R
ROBINSON*      CLOUDY    71  65  82 S9        30.05R
CARMI*         MOCLDY    70  63  78 SE6       30.05R
$$

ABBREVIATIONS USED IN REMARKS
   TC - TEMPERATURE IN CELSIUS
  WCI - WIND CHILL INDEX
   HX - HEAT INDEX
  VSB - VISIBILITY
$$



USA.gov is the U.S. government's official web portal to all federal, state and local government web resources and services.